Zurück zum Katalog

CZ-3B R/B

AktivHEO
NORAD 58657·ROCKET BODY·🇨🇳 China

Gestartet Dec 26, 2023 von Xichang Satellite Launch Center

Loading…

Nächste Überflüge (nächste 24 Stunden)

TLE

AktuellSource: Space-Track

Epoche: Sep 13, 2026, 01:05 UTC

1 58657U 23207D   26256.04579798  .00000508  00000-0  35864-3 0  9997
2 58657  54.9762 228.9225 5499769 139.4664 278.3537  4.73199045 46173

Verfolge CZ-3B R/B in Echtzeit mit AllMySat

Download on the App Store